Wind_Speed
55 56 57 57 58 59 59 59 59 59 59 59 59 59 59 59 59 59 60 60 59 59 60 60 60 61 61 61 61 61 62 62 62 63 63 63 63 64 64 65 66 70 72 71 68 68 67 66 65 66 66 67 68 68 67 66 65 63 61 60 59 60 61
56 56 56 57 57 57 58 58 59 59 59 60 59 59 59 59 59 59 60 60 60 59 59 59 60 60 60 61 61 61 61 61 61 62 62 62 62 62 62 63 64 68 71 72 69 68 68 67 67 68 67 67 69 69 69 69 68 67 65 63 62 61 61
57 58 58 58 57 57 57 57 57 57 58 58 58 58 58 58 58 58 59 59 59 58 58 59 58 58 59 59 60 60 60 60 60 60 61 61 61 62 62 61 62 65 69 71 70 68 68 68 68 68 68 68 69 69 70 71 71 71 69 67 65 64 63
57 58 58 58 58 58 57 57 57 56 56 56 56 56 56 56 56 56 56 57 57 57 57 57 57 57 57 57 58 59 59 59 59 59 60 60 60 61 61 61 62 63 66 69 70 68 68 69 68 69 69 68 69 70 70 71 72 72 73 71 68 67 66
56 56 56 56 56 56 56 56 56 56 55 55 54 55 55 55 55 55 55 55 55 55 55 55 56 56 56 56 57 57 57 57 57 58 59 59 60 60 61 61 62 63 64 66 69 69 68 69 69 69 70 69 69 70 70 72 73 72 73 73 71 70 69
55 55 54 54 54 54 54 54 54 54 54 54 53 54 54 54 54 54 54 54 53 54 54 55 55 55 55 56 56 56 56 56 56 57 58 59 59 59 60 62 62 63 64 65 67 68 68 69 68 68 69 70 69 69 70 71 73 72 73 75 73 71 71
54 54 53 52 52 52 52 52 51 51 52 52 52 53 53 53 53 52 53 53 53 53 53 54 54 54 54 54 55 55 55 55 56 56 57 58 59 59 60 62 63 63 64 66 67 67 68 69 68 67 68 69 69 69 69 70 73 73 72 75 75 73 72
53 53 52 52 51 50 50 50 49 49 49 49 50 50 51 51 50 50 51 51 51 52 52 53 53 53 53 52 53 54 54 54 55 55 57 58 58 59 60 61 63 64 65 66 67 68 68 68 68 68 67 67 68 68 70 71 72 73 72 72 75 75 73
52 51 51 50 50 49 48 48 47 46 46 46 47 48 48 48 48 48 49 49 49 50 50 51 52 52 51 50 51 51 52 53 54 55 56 57 57 58 60 61 62 64 66 67 68 69 68 67 68 68 66 67 67 68 70 70 69 72 72 70 73 76 73
50 50 49 49 48 47 46 46 45 44 43 43 43 44 45 46 46 46 47 48 48 48 49 49 49 50 49 49 49 50 51 52 53 53 55 55 56 57 59 60 62 63 64 66 68 69 69 68 68 67 66 67 67 66 66 67 68 72 73 69 69 74 73
48 48 47 47 46 45 44 43 42 41 40 39 39 40 42 44 44 45 46 46 47 47 47 47 47 47 47 48 48 48 49 50 51 52 52 53 53 54 56 58 61 63 64 64 66 67 69 70 69 68 66 66 67 66 64 64 66 68 71 70 69 73 73
46 46 45 45 45 44 43 42 40 40 39 37 36 37 38 40 42 43 45 45 45 45 45 45 45 45 45 46 47 46 46 47 48 48 48 49 49 49 50 51 53 57 60 62 64 65 67 69 68 68 67 65 66 66 63 63 65 65 69 71 68 70 72
45 44 44 44 43 43 42 41 39 38 36 35 34 35 35 37 40 42 43 43 43 43 43 43 43 43 44 44 43 43 42 41 42 43 43 44 44 45 46 46 48 50 53 57 61 63 65 66 65 66 67 66 65 65 63 63 63 61 63 68 67 68 70
44 43 43 42 42 42 41 39 37 36 34 33 33 33 34 36 38 40 41 40 40 40 41 40 39 39 40 40 39 39 38 37 39 41 43 44 44 46 47 47 48 50 52 54 58 62 65 64 64 64 65 65 64 63 63 63 58 50 48 51 55 58 60
44 43 43 42 42 41 39 37 35 34 33 33 33 33 33 35 36 37 37 37 37 37 36 35 35 37 39 39 39 39 39 40 41 42 44 45 45 47 48 49 50 51 52 54 56 60 63 63 63 63 62 63 62 62 64 63 58 47 39 39 42 43 45
44 44 43 42 41 41 39 36 34 33 32 32 32 32 33 35 34 34 34 33 33 32 32 33 34 37 39 40 42 42 42 43 42 43 46 46 45 45 46 48 50 49 49 50 51 54 57 59 60 59 58 58 57 58 59 60 59 52 41 40 42 41 41
44 43 43 42 40 40 39 35 33 33 33 32 30 30 32 33 31 30 30 29 29 30 32 34 35 38 41 42 43 44 44 43 41 42 45 47 45 44 44 45 46 45 44 44 44 47 48 49 50 50 49 49 50 50 49 51 56 56 47 43 44 43 41
43 42 41 41 40 39 39 36 34 34 33 31 28 27 28 28 28 27 28 28 30 32 34 36 37 39 42 43 43 42 41 40 39 40 43 44 43 41 42 41 40 40 40 38 39 42 43 43 43 42 42 43 44 43 41 43 48 52 50 45 43 42 40
43 42 40 40 39 38 37 36 35 33 31 30 26 23 23 24 25 26 28 30 33 35 36 37 38 37 37 38 39 39 38 37 37 39 42 41 38 39 42 37 30 27 29 29 32 37 41 42 43 42 41 42 41 40 41 42 43 47 49 46 43 41 39
42 42 40 39 38 37 35 35 34 31 29 28 24 20 19 21 24 26 28 31 33 34 35 35 33 32 32 34 35 35 35 35 34 36 38 38 37 39 37 27 18 16 17 18 21 25 30 35 39 41 43 43 41 41 42 43 43 46 48 44 41 39 39
41 41 40 38 37 36 33 32 31 29 28 27 23 19 19 21 23 24 27 30 31 32 33 32 31 30 31 33 33 31 30 29 27 28 31 34 36 33 25 17 14 15 16 17 18 18 20 26 31 36 41 42 42 42 42 43 47 49 49 45 41 38 37
40 40 39 37 36 33 31 29 27 25 25 25 22 19 19 21 22 22 25 29 29 29 31 31 31 30 28 28 28 26 24 21 18 18 21 24 23 21 17 17 19 20 20 23 22 19 19 22 24 28 33 37 39 39 38 41 46 50 50 45 41 39 38
39 40 39 37 34 31 29 26 22 19 20 22 21 20 20 21 21 22 25 26 25 25 28 29 30 28 24 24 24 22 19 16 15 16 18 17 16 17 19 22 24 25 26 27 25 21 20 21 21 23 27 31 34 34 33 34 40 46 47 43 39 37 38
39 39 39 37 34 31 28 24 19 16 17 19 19 20 21 21 21 22 22 21 20 23 26 28 28 26 22 20 21 19 17 17 17 16 16 16 17 21 23 24 25 27 28 27 26 23 22 21 22 23 24 26 29 31 30 29 34 40 42 41 38 36 36
39 39 38 37 35 31 28 24 20 17 17 17 18 20 20 20 20 21 19 17 18 23 27 28 27 24 20 18 17 17 16 15 14 13 14 16 18 21 23 23 24 26 26 26 25 23 21 21 22 22 22 22 25 29 31 30 33 37 39 38 37 35 35
39 38 38 37 35 33 28 25 22 20 19 18 18 20 21 20 19 18 16 15 19 24 28 27 24 20 18 17 16 16 16 15 14 13 13 14 16 18 19 20 21 22 22 21 19 18 17 19 21 21 21 21 22 26 31 33 36 39 40 37 35 35 35
39 38 38 38 36 34 31 28 26 24 21 20 19 21 22 19 17 15 15 15 20 25 28 27 23 18 16 15 15 16 17 17 17 15 13 13 16 17 17 17 18 19 19 18 16 14 14 16 19 19 20 21 21 22 27 33 38 41 40 38 37 36 35
40 39 38 38 37 37 35 32 29 26 24 21 19 19 20 19 17 17 17 18 22 26 29 29 25 19 16 16 16 16 17 18 17 15 13 15 17 17 15 15 16 16 17 18 19 17 15 16 17 18 19 21 21 22 23 28 36 41 41 39 37 36 36
40 39 39 38 37 38 37 35 32 28 26 24 23 21 21 20 20 20 20 21 24 26 28 30 29 23 18 17 18 18 18 18 17 16 15 15 16 15 12 11 12 13 14 16 17 17 17 16 16 17 18 19 21 23 23 25 31 38 40 37 35 35 35
37 37 37 37 36 36 36 36 34 31 28 26 25 24 22 21 21 21 22 22 24 25 26 28 29 25 20 17 18 19 19 18 16 15 15 15 15 13 10 9 10 11 12 13 14 15 16 16 15 15 16 17 19 22 24 25 29 35 37 35 33 34 34
33 32 33 34 34 34 34 33 33 32 29 27 25 24 22 20 20 21 22 22 22 23 24 25 26 25 22 20 19 19 19 18 16 15 15 16 16 14 12 11 11 10 10 11 13 14 13 13 12 12 13 15 17 21 24 27 31 35 36 35 34 34 33
31 31 30 30 31 32 33 32 31 31 30 28 26 25 22 21 21 21 21 21 21 21 23 24 24 24 23 23 22 20 17 16 15 15 15 17 17 16 15 13 12 12 12 12 13 13 12 11 11 11 11 12 14 18 22 27 32 37 38 37 35 34 33
28 29 29 27 27 28 29 30 29 30 29 28 27 25 23 22 21 20 20 20 20 20 21 22 21 21 22 24 25 22 16 12 11 12 15 17 19 19 18 16 15 14 14 14 14 14 13 10 10 11 12 11 12 15 19 25 32 38 40 38 35 33 33
24 26 27 26 24 24 26 27 26 27 27 27 25 24 23 21 19 18 18 18 19 20 20 20 19 19 20 23 25 23 16 10 7 8 11 15 19 21 21 20 19 18 17 17 16 15 13 11 10 11 12 12 11 12 15 22 30 36 39 39 36 33 33
25 24 25 25 24 23 24 25 25 25 25 26 25 24 22 20 17 16 17 18 19 19 18 17 17 17 17 19 23 23 18 10 6 5 5 8 14 19 21 22 22 22 20 19 18 17 14 12 11 10 12 13 12 11 12 17 24 32 36 37 36 34 32
30 27 25 24 24 23 23 24 24 24 24 25 25 24 22 20 18 17 17 17 17 17 17 16 17 16 15 16 18 21 19 12 7 5 4 3 6 12 17 20 22 23 22 22 20 18 16 13 11 11 12 13 12 11 11 14 20 28 33 35 35 32 29
Wind_Direction
297 295 293 292 290 289 287 286 285 283 282 280 279 279 278 277 276 275 274 273 272 272 271 270 270 269 269 268 268 267 266 266 266 265 265 265 265 265 266 266 267 268 268 266 265 264 263 262 262 261 260 260 260 258 257 254 251 249 248 248 248 249 250
299 298 296 294 293 291 290 288 287 285 284 282 281 280 279 278 277 276 275 274 273 272 271 270 269 269 269 268 268 267 266 266 265 265 265 265 265 264 264 265 265 266 267 266 265 264 263 262 262 260 260 260 260 260 259 257 254 251 249 248 248 248 249
300 298 297 295 294 293 291 290 288 287 286 284 283 282 280 279 278 277 275 275 274 273 272 271 270 269 269 268 267 267 266 266 265 265 265 264 264 264 263 263 264 265 266 266 266 264 262 262 262 261 259 259 259 259 259 259 257 254 252 250 249 249 248
300 299 297 296 294 293 292 290 289 288 287 286 284 283 282 280 279 278 276 275 274 274 273 272 271 270 269 269 268 267 266 266 266 265 265 264 264 263 263 262 262 263 264 265 265 264 262 261 261 261 259 259 259 258 258 258 257 257 255 252 251 250 249
301 299 298 296 295 293 292 291 289 288 287 286 286 284 283 281 280 278 277 276 275 274 274 273 272 271 270 269 268 267 267 267 266 266 265 265 264 264 263 262 262 262 262 263 264 264 263 261 260 261 260 259 259 258 257 257 256 256 257 254 252 252 251
303 301 300 298 296 294 293 291 290 289 288 287 286 285 283 282 281 280 278 277 276 275 274 273 272 271 271 270 270 269 268 268 267 267 266 265 265 264 264 263 262 261 261 261 262 263 263 261 260 260 259 259 259 258 257 257 256 255 256 256 254 253 252
305 303 302 300 298 297 295 293 292 291 289 288 287 285 284 283 281 280 279 278 276 275 274 273 272 272 271 271 271 270 270 269 269 268 267 266 266 265 265 264 263 262 261 260 260 260 261 261 260 259 259 258 258 259 258 257 256 255 254 255 254 253 252
306 304 303 301 300 299 297 296 294 293 291 289 288 286 285 284 282 281 279 278 276 275 275 274 273 272 272 272 273 272 272 271 271 270 269 268 268 267 267 266 265 263 262 260 259 259 259 260 260 259 259 258 258 258 257 256 257 256 255 255 255 253 252
306 305 304 302 301 300 299 298 296 295 293 291 289 287 285 283 281 279 277 276 274 274 273 273 273 272 272 272 272 272 272 272 271 271 270 270 269 269 268 267 266 265 264 262 261 259 258 258 258 258 258 257 257 258 258 257 258 258 255 255 256 254 252
307 306 305 304 303 302 300 299 298 296 295 293 291 289 287 285 282 280 278 276 274 272 271 271 271 271 271 270 269 269 269 269 269 269 269 268 268 268 267 266 265 264 264 263 262 261 259 258 256 256 255 256 256 257 257 258 258 258 257 255 256 255 253
308 307 306 305 304 303 301 300 299 298 295 294 292 290 288 287 284 282 280 278 277 276 275 275 274 273 272 271 270 269 269 269 269 269 269 269 268 268 267 266 265 264 262 261 260 260 259 258 257 255 253 253 254 254 254 255 256 258 258 256 256 255 253
309 308 307 306 305 305 303 302 301 299 297 294 292 289 287 285 283 281 280 280 279 280 280 279 278 277 275 274 274 274 273 273 272 272 271 271 270 268 267 267 267 267 266 264 261 258 257 256 256 255 253 251 251 251 250 251 252 254 257 257 257 256 255
310 309 309 307 306 305 304 303 302 300 298 295 291 288 285 282 280 279 280 280 281 281 281 280 280 279 278 278 278 278 277 277 276 275 273 271 269 267 264 262 261 262 265 266 265 262 259 256 254 253 252 250 249 247 246 246 248 251 255 256 256 257 256
312 311 310 309 308 306 305 305 304 301 299 295 291 287 284 280 278 278 279 280 280 281 281 282 283 283 283 284 285 284 283 281 280 280 277 273 270 267 264 261 259 258 258 260 262 263 262 260 256 253 251 249 246 244 242 242 244 247 252 255 255 257 258
313 312 311 310 310 308 307 307 306 303 300 297 293 290 286 282 281 280 280 279 279 280 281 283 284 285 287 289 289 290 289 288 287 285 281 276 271 267 264 262 260 259 259 259 259 260 261 261 259 256 252 249 246 243 241 240 238 238 244 250 251 252 254
314 313 312 312 313 312 310 309 308 305 302 299 297 293 288 285 283 281 279 278 279 280 281 283 284 286 287 289 290 291 291 290 288 285 283 279 273 268 264 262 262 262 262 262 261 259 259 259 259 258 255 252 249 246 242 239 235 231 233 241 243 243 245
314 313 313 314 315 314 313 312 311 309 305 302 299 293 288 285 283 280 278 279 281 283 284 285 286 287 287 287 288 289 288 286 283 282 284 282 277 271 266 263 264 265 265 262 259 256 256 256 256 256 254 251 249 247 244 241 235 229 227 232 236 238 240
314 314 315 317 317 317 316 315 314 311 307 304 300 292 285 283 280 279 281 284 286 287 288 288 288 287 288 289 290 289 287 284 282 281 281 280 278 275 271 270 271 271 266 258 252 249 249 249 250 250 249 247 245 243 243 243 238 229 224 227 232 235 239
315 315 317 318 318 319 318 316 314 311 306 302 298 288 279 277 279 282 287 290 290 289 289 289 290 290 291 293 293 290 285 281 279 277 275 275 272 271 274 277 275 269 262 255 248 246 244 243 241 240 240 240 238 235 234 237 236 226 221 225 231 233 236
316 317 318 319 320 321 319 315 313 309 303 300 295 283 273 274 279 286 291 292 291 290 291 291 294 298 302 301 295 288 282 277 273 271 269 267 264 266 271 275 269 260 260 259 255 251 248 246 241 236 234 232 231 229 227 226 226 221 218 221 228 230 233
317 317 318 320 322 321 318 315 313 307 300 297 290 275 266 271 278 288 297 297 294 295 295 295 297 304 309 308 301 295 290 284 277 271 266 263 264 266 268 266 261 265 269 269 269 267 259 254 247 239 233 229 228 229 227 222 219 216 216 220 224 227 232
317 317 319 321 322 320 318 317 314 305 296 291 283 269 262 269 278 292 302 301 299 299 298 297 299 304 311 313 308 301 295 289 280 270 264 265 270 270 263 262 269 274 274 273 274 275 267 257 249 242 236 230 228 229 229 225 219 215 216 220 222 224 230
317 318 319 321 322 322 321 320 316 306 295 286 275 265 261 266 279 294 301 300 302 304 303 301 302 304 311 316 310 297 284 274 266 264 266 270 275 270 261 261 266 269 272 273 272 270 262 252 244 240 237 233 229 228 227 226 222 217 216 218 220 224 231
318 319 320 322 324 325 325 325 322 314 302 287 273 263 261 265 280 293 297 300 308 316 315 311 307 305 305 306 303 294 280 269 263 266 270 267 263 262 260 258 259 261 265 267 265 260 254 247 243 240 237 233 230 226 222 221 220 217 217 220 222 223 228
319 319 320 323 325 326 328 332 332 324 310 294 276 265 264 271 282 289 295 304 318 327 326 320 312 304 293 287 289 286 275 265 258 258 260 257 253 255 256 254 255 257 257 257 256 254 250 247 245 243 240 237 233 228 222 217 214 214 215 219 222 224 227
318 319 321 324 326 327 331 337 339 332 318 303 286 271 269 276 283 288 297 314 328 334 333 327 318 306 287 275 279 280 269 259 256 255 258 258 253 250 250 248 249 251 252 251 250 250 249 246 244 244 243 241 238 233 225 216 211 212 214 216 219 223 227
319 321 323 324 327 329 333 339 341 335 325 314 297 279 272 278 291 300 310 325 337 342 341 337 329 315 293 277 278 282 276 266 261 261 262 255 245 244 247 245 239 239 244 243 237 236 242 243 241 241 241 239 239 238 229 219 213 212 215 217 219 222 223
321 322 323 325 328 330 332 335 337 335 329 324 313 293 280 286 303 315 323 335 341 342 343 343 339 325 305 288 281 282 282 274 264 260 258 248 244 250 255 247 234 229 234 234 227 226 238 245 241 237 234 233 233 234 231 224 216 213 215 218 220 221 222
320 321 323 326 329 330 328 330 333 333 331 330 326 316 305 302 308 314 322 334 337 335 339 346 344 333 316 297 283 278 280 277 267 257 250 245 249 259 258 237 221 216 216 219 220 226 238 247 243 236 231 228 227 227 227 224 218 215 215 216 216 218 221
318 319 321 322 325 326 324 325 328 330 329 327 325 322 318 312 308 308 314 325 329 328 333 342 344 339 332 315 295 283 278 275 267 256 246 240 244 253 240 204 197 205 209 215 223 233 243 249 248 245 239 231 225 221 219 218 217 215 213 211 210 214 218
314 314 316 317 320 321 321 321 322 323 324 323 320 321 323 319 309 303 307 315 321 324 329 335 338 341 344 339 323 304 287 276 266 254 242 234 235 239 228 203 197 204 211 220 231 239 250 258 258 256 250 239 230 222 216 215 215 212 209 208 210 213 218
313 311 311 313 315 316 317 318 318 319 321 321 319 320 325 324 312 302 303 308 314 321 328 330 331 336 343 345 341 329 307 285 268 253 240 231 229 232 229 220 214 212 213 220 231 243 257 267 266 261 257 248 237 227 218 214 211 210 210 211 213 215 220
313 311 310 310 311 312 314 315 315 316 317 316 315 316 321 322 312 301 298 302 308 316 324 325 325 331 339 344 347 345 331 304 279 259 243 232 228 228 229 227 224 224 226 230 238 249 259 265 260 256 259 261 252 236 224 215 211 210 212 214 216 218 222
317 312 310 309 309 310 311 312 312 312 313 312 312 314 318 319 312 303 300 303 306 312 318 321 323 327 333 340 347 352 350 334 307 279 254 238 230 228 230 231 229 230 234 238 244 253 260 263 259 253 255 263 264 249 232 220 213 211 212 215 217 219 221
329 321 316 313 311 311 313 314 313 313 314 314 313 314 316 317 316 310 306 305 304 305 310 317 322 326 330 337 345 354 359 358 346 324 285 251 235 229 229 232 234 235 237 242 248 254 258 261 261 253 248 256 261 255 241 227 216 212 211 213 216 219 221
337 330 324 319 316 314 315 315 315 314 315 314 313 314 316 319 319 315 308 302 298 298 304 312 317 322 329 335 342 352 0 8 11 2 345 299 250 233 229 231 236 240 243 246 250 253 255 254 250 244 246 257 263 256 242 228 218 212 209 209 213 217 220
Height
2889 2886 2883 2880 2877 2875 2872 2870 2868 2866 2864 2863 2861 2860 2858 2856 2855 2853 2852 2852 2851 2850 2849 2848 2848 2848 2847 2846 2846 2846 2846 2846 2846 2845 2846 2846 2845 2845 2845 2844 2841 2837 2838 2845 2849 2853 2857 2860 2860 2860 2862 2864 2864 2865 2869 2871 2874 2877 2880 2882 2885 2886 2887
2881 2877 2874 2872 2869 2866 2863 2861 2858 2856 2854 2852 2851 2849 2847 2846 2844 2843 2842 2841 2840 2840 2839 2838 2838 2838 2837 2836 2835 2836 2836 2836 2836 2835 2835 2836 2836 2836 2837 2836 2833 2830 2829 2831 2837 2842 2846 2849 2850 2851 2853 2855 2855 2857 2859 2860 2863 2866 2869 2873 2876 2878 2879
2872 2869 2865 2862 2860 2857 2854 2851 2849 2847 2844 2842 2840 2839 2837 2836 2834 2833 2831 2830 2830 2829 2828 2827 2828 2828 2827 2826 2825 2826 2826 2826 2826 2825 2825 2826 2826 2826 2827 2827 2825 2823 2821 2820 2824 2830 2836 2839 2839 2840 2844 2846 2846 2848 2849 2849 2853 2855 2858 2862 2865 2868 2871
2865 2861 2857 2854 2851 2848 2845 2842 2840 2837 2835 2833 2831 2828 2827 2825 2824 2823 2822 2821 2820 2819 2818 2817 2817 2817 2817 2816 2816 2816 2816 2816 2816 2816 2815 2816 2816 2816 2817 2817 2816 2815 2814 2812 2812 2817 2825 2829 2828 2829 2834 2836 2836 2839 2840 2840 2843 2845 2847 2852 2855 2858 2861
2857 2853 2849 2846 2842 2839 2836 2833 2830 2828 2826 2824 2822 2819 2817 2815 2814 2813 2812 2811 2810 2809 2808 2808 2807 2807 2807 2806 2806 2807 2807 2807 2806 2806 2805 2806 2806 2806 2807 2807 2807 2807 2806 2804 2803 2806 2812 2817 2818 2819 2823 2827 2826 2829 2831 2831 2833 2835 2837 2840 2845 2848 2851
2848 2844 2840 2837 2834 2830 2827 2825 2822 2820 2817 2815 2813 2810 2808 2806 2805 2803 2802 2801 2801 2800 2799 2798 2798 2798 2797 2796 2796 2797 2797 2797 2797 2796 2796 2796 2796 2796 2796 2796 2797 2798 2798 2796 2796 2797 2799 2803 2808 2810 2812 2816 2817 2818 2820 2822 2823 2827 2828 2829 2834 2838 2841
2839 2835 2832 2828 2825 2822 2819 2816 2814 2812 2809 2806 2804 2801 2799 2798 2796 2794 2793 2792 2791 2790 2789 2789 2788 2788 2788 2787 2787 2787 2788 2787 2787 2786 2786 2786 2786 2786 2786 2786 2787 2787 2787 2788 2788 2789 2789 2791 2796 2799 2801 2806 2808 2807 2809 2812 2814 2817 2819 2820 2822 2826 2830
2831 2828 2824 2820 2817 2814 2811 2808 2806 2804 2801 2798 2795 2793 2790 2789 2787 2785 2784 2783 2782 2781 2780 2779 2779 2779 2779 2779 2778 2778 2778 2777 2777 2776 2776 2776 2776 2776 2775 2776 2776 2776 2777 2778 2779 2780 2781 2782 2784 2787 2791 2795 2797 2796 2799 2804 2805 2806 2809 2811 2811 2815 2820
2824 2820 2816 2813 2810 2807 2803 2800 2798 2796 2793 2790 2788 2784 2782 2780 2778 2777 2775 2774 2774 2773 2772 2771 2770 2770 2770 2770 2770 2769 2768 2768 2768 2767 2766 2767 2767 2766 2766 2766 2766 2766 2766 2767 2768 2769 2772 2773 2773 2777 2782 2784 2786 2787 2790 2796 2797 2794 2798 2803 2802 2803 2809
2817 2813 2809 2805 2802 2800 2797 2794 2791 2789 2787 2784 2780 2776 2773 2771 2769 2768 2766 2765 2765 2765 2764 2764 2763 2762 2762 2762 2762 2762 2761 2760 2760 2758 2758 2758 2758 2756 2756 2756 2756 2756 2756 2756 2757 2758 2761 2762 2764 2768 2772 2774 2776 2780 2782 2785 2786 2784 2788 2793 2792 2793 2799
2811 2807 2803 2799 2796 2793 2790 2787 2785 2782 2780 2778 2775 2771 2767 2764 2762 2760 2759 2757 2757 2756 2756 2756 2755 2755 2754 2753 2753 2753 2753 2752 2751 2750 2749 2749 2748 2747 2746 2745 2745 2745 2746 2746 2746 2747 2749 2750 2753 2759 2762 2765 2768 2771 2773 2775 2776 2776 2778 2781 2782 2784 2789
2805 2801 2797 2793 2789 2786 2783 2781 2779 2776 2774 2772 2769 2766 2763 2759 2755 2753 2752 2751 2750 2749 2749 2748 2747 2746 2745 2745 2745 2744 2744 2743 2742 2742 2741 2740 2739 2739 2738 2737 2735 2734 2734 2734 2734 2736 2737 2739 2743 2747 2751 2756 2759 2761 2764 2766 2767 2768 2768 2770 2773 2775 2778
2799 2795 2791 2787 2784 2781 2777 2775 2773 2770 2768 2765 2763 2761 2758 2753 2750 2747 2746 2745 2744 2743 2742 2740 2739 2738 2737 2737 2737 2737 2736 2735 2734 2733 2733 2732 2731 2730 2730 2730 2730 2728 2727 2725 2724 2723 2725 2729 2733 2736 2739 2745 2749 2751 2755 2757 2759 2761 2761 2762 2764 2766 2770
2793 2789 2786 2782 2778 2775 2772 2769 2767 2764 2762 2759 2756 2754 2751 2747 2744 2742 2741 2740 2738 2737 2735 2734 2733 2731 2730 2730 2730 2729 2728 2728 2727 2725 2724 2723 2722 2721 2720 2720 2721 2721 2721 2719 2716 2713 2714 2719 2722 2725 2729 2734 2737 2740 2745 2748 2751 2756 2757 2756 2758 2760 2763
2787 2783 2780 2776 2773 2769 2766 2764 2761 2758 2756 2753 2750 2748 2745 2741 2739 2737 2736 2735 2733 2732 2730 2729 2729 2726 2725 2724 2723 2722 2722 2720 2718 2716 2714 2714 2713 2712 2711 2710 2710 2711 2712 2712 2710 2707 2707 2709 2711 2715 2720 2724 2726 2730 2735 2739 2743 2749 2752 2752 2753 2755 2756
2781 2777 2773 2770 2767 2763 2760 2758 2756 2753 2750 2747 2745 2742 2739 2736 2734 2732 2730 2729 2729 2728 2727 2725 2724 2722 2720 2718 2716 2715 2715 2714 2711 2708 2705 2704 2704 2704 2703 2701 2701 2703 2703 2703 2702 2701 2700 2701 2703 2706 2711 2715 2719 2722 2726 2731 2734 2739 2744 2745 2746 2748 2748
2776 2772 2768 2765 2762 2758 2754 2752 2750 2747 2744 2742 2740 2737 2733 2730 2729 2727 2726 2725 2725 2724 2722 2721 2719 2717 2714 2712 2710 2709 2708 2707 2706 2702 2698 2695 2694 2695 2695 2694 2694 2695 2695 2695 2694 2694 2694 2696 2697 2699 2703 2707 2711 2714 2719 2722 2724 2729 2735 2737 2738 2740 2742
2771 2767 2764 2760 2757 2753 2749 2746 2744 2741 2738 2736 2735 2732 2729 2726 2724 2723 2722 2721 2720 2719 2717 2715 2714 2712 2709 2706 2704 2702 2701 2700 2699 2696 2692 2689 2687 2687 2686 2686 2687 2687 2686 2687 2687 2687 2688 2690 2692 2694 2697 2700 2704 2708 2713 2714 2715 2722 2728 2730 2731 2734 2737
2765 2762 2760 2756 2753 2749 2745 2741 2739 2736 2733 2731 2730 2728 2725 2723 2721 2719 2719 2717 2715 2714 2712 2710 2708 2707 2704 2701 2698 2696 2694 2694 2692 2689 2686 2684 2682 2680 2679 2680 2682 2681 2679 2680 2681 2680 2681 2682 2684 2687 2690 2692 2696 2700 2705 2706 2709 2715 2720 2722 2726 2729 2732
2761 2757 2755 2752 2749 2745 2741 2737 2734 2732 2729 2727 2725 2724 2722 2720 2718 2717 2715 2713 2710 2708 2707 2705 2702 2700 2698 2695 2693 2690 2688 2687 2686 2683 2680 2679 2677 2675 2675 2677 2678 2677 2676 2677 2676 2676 2677 2677 2678 2680 2682 2685 2688 2691 2695 2698 2702 2707 2711 2716 2720 2724 2725
2757 2753 2750 2748 2745 2741 2738 2734 2730 2727 2725 2723 2721 2721 2719 2717 2715 2714 2711 2708 2706 2704 2701 2699 2697 2694 2692 2688 2685 2683 2681 2679 2679 2678 2676 2674 2672 2672 2674 2675 2674 2673 2673 2673 2673 2673 2674 2673 2674 2675 2677 2679 2682 2685 2688 2692 2695 2699 2705 2709 2714 2717 2720
2753 2749 2746 2744 2741 2738 2735 2731 2727 2723 2720 2718 2717 2717 2716 2714 2713 2711 2708 2704 2702 2700 2697 2694 2691 2689 2687 2683 2681 2679 2677 2675 2674 2674 2672 2670 2670 2670 2671 2671 2671 2670 2670 2670 2670 2670 2670 2670 2671 2672 2673 2675 2678 2680 2684 2687 2690 2694 2699 2704 2708 2712 2714
2748 2745 2742 2740 2738 2734 2731 2728 2724 2720 2716 2714 2714 2713 2712 2711 2710 2708 2704 2701 2698 2696 2693 2690 2687 2684 2681 2680 2678 2676 2674 2673 2671 2670 2669 2669 2669 2669 2669 2669 2668 2667 2667 2667 2667 2667 2667 2668 2669 2669 2671 2673 2675 2678 2681 2684 2687 2690 2695 2700 2704 2707 2710
2744 2740 2737 2735 2733 2730 2727 2724 2721 2717 2713 2711 2710 2709 2708 2707 2706 2704 2701 2698 2695 2692 2688 2685 2682 2679 2677 2675 2675 2673 2671 2670 2668 2667 2667 2667 2667 2666 2666 2665 2665 2665 2664 2664 2665 2665 2665 2666 2667 2667 2668 2670 2673 2675 2678 2681 2684 2688 2692 2696 2699 2703 2707
2740 2736 2733 2730 2728 2725 2723 2720 2716 2713 2710 2708 2706 2705 2705 2704 2702 2700 2697 2694 2691 2688 2684 2680 2677 2674 2672 2671 2670 2669 2668 2666 2665 2664 2664 2663 2663 2662 2662 2662 2662 2662 2662 2662 2662 2662 2663 2664 2665 2666 2667 2668 2670 2672 2675 2678 2681 2685 2689 2692 2696 2700 2703
2736 2732 2729 2726 2723 2720 2718 2716 2713 2710 2707 2704 2702 2702 2701 2700 2699 2696 2693 2690 2687 2684 2680 2676 2673 2669 2668 2667 2666 2665 2664 2663 2663 2662 2661 2660 2659 2659 2658 2658 2659 2659 2659 2660 2660 2661 2661 2662 2663 2664 2665 2666 2667 2669 2671 2674 2678 2681 2684 2689 2693 2696 2699
2732 2728 2725 2721 2719 2716 2713 2711 2709 2706 2703 2701 2699 2698 2697 2696 2694 2692 2689 2686 2683 2679 2676 2672 2669 2666 2664 2664 2663 2662 2661 2660 2660 2660 2659 2657 2656 2656 2655 2655 2655 2656 2656 2657 2658 2659 2660 2661 2662 2662 2662 2663 2664 2666 2668 2671 2674 2677 2681 2685 2689 2692 2694
2728 2725 2721 2717 2714 2711 2708 2707 2706 2703 2700 2697 2695 2693 2692 2692 2690 2687 2685 2682 2678 2675 2673 2670 2666 2664 2662 2661 2660 2659 2658 2657 2657 2657 2656 2655 2654 2654 2653 2652 2652 2653 2653 2654 2656 2658 2659 2659 2660 2660 2661 2661 2662 2663 2665 2667 2671 2674 2678 2682 2685 2688 2691
2723 2720 2717 2714 2711 2707 2704 2703 2702 2700 2698 2695 2693 2691 2689 2688 2686 2683 2681 2678 2676 2673 2671 2668 2665 2662 2660 2658 2657 2656 2655 2654 2653 2654 2653 2653 2652 2652 2651 2651 2651 2651 2651 2653 2654 2656 2657 2657 2658 2658 2658 2659 2660 2661 2663 2665 2668 2671 2674 2678 2682 2685 2687
2722 2718 2714 2711 2709 2707 2703 2700 2698 2697 2695 2693 2691 2689 2687 2685 2683 2681 2678 2676 2674 2672 2669 2666 2664 2661 2658 2656 2654 2653 2651 2651 2650 2650 2651 2650 2650 2650 2650 2650 2650 2650 2651 2652 2654 2655 2655 2656 2656 2656 2656 2657 2658 2659 2661 2663 2665 2668 2672 2675 2679 2682 2684
2722 2718 2714 2710 2707 2705 2702 2699 2697 2695 2693 2691 2689 2687 2685 2683 2681 2679 2677 2675 2673 2671 2668 2666 2664 2661 2658 2655 2652 2650 2648 2647 2647 2647 2647 2648 2648 2649 2649 2649 2649 2650 2651 2652 2653 2653 2654 2654 2654 2654 2654 2655 2655 2657 2658 2660 2663 2666 2670 2673 2676 2679 2682
2720 2717 2714 2711 2707 2703 2700 2697 2695 2692 2690 2688 2686 2684 2682 2681 2678 2676 2675 2673 2671 2669 2667 2665 2663 2661 2657 2654 2651 2648 2645 2644 2644 2644 2644 2645 2646 2647 2647 2648 2649 2649 2650 2651 2652 2652 2653 2653 2652 2652 2653 2653 2653 2654 2656 2658 2661 2664 2667 2671 2674 2677 2680
2718 2715 2712 2709 2706 2702 2699 2695 2693 2690 2688 2686 2684 2682 2680 2679 2677 2674 2672 2671 2670 2668 2666 2664 2662 2660 2657 2653 2650 2646 2643 2641 2641 2641 2641 2642 2644 2645 2646 2647 2648 2648 2649 2650 2650 2651 2651 2651 2651 2651 2651 2652 2652 2653 2654 2655 2658 2661 2665 2668 2671 2675 2678
2717 2713 2709 2707 2704 2701 2698 2694 2691 2689 2686 2684 2681 2679 2678 2676 2674 2672 2670 2669 2667 2666 2665 2663 2661 2659 2656 2653 2650 2646 2643 2641 2640 2639 2639 2640 2641 2643 2644 2645 2646 2647 2648 2648 2649 2650 2650 2650 2650 2650 2650 2651 2651 2651 2652 2653 2655 2658 2662 2666 2669 2673 2676
2715 2711 2707 2704 2701 2698 2695 2692 2689 2686 2683 2681 2678 2677 2675 2674 2672 2670 2669 2667 2666 2665 2663 2662 2660 2658 2656 2653 2650 2647 2644 2641 2640 2639 2638 2638 2639 2640 2641 2643 2644 2645 2646 2646 2647 2648 2649 2649 2649 2650 2649 2649 2650 2650 2651 2652 2654 2656 2660 2664 2668 2671 2674
2710 2707 2704 2701 2698 2695 2692 2689 2686 2684 2681 2678 2676 2674 2673 2671 2669 2668 2667 2665 2664 2663 2662 2660 2659 2657 2656 2653 2651 2648 2645 2642 2640 2639 2638 2638 2638 2638 2639 2641 2642 2643 2644 2645 2645 2646 2647 2648 2648 2648 2648 2648 2648 2649 2649 2651 2652 2655 2658 2662 2666 2669 2672